| time (UTC) | temp F | wind direction | speed MPH | gust MPH | rain 1hr in | rain 24hr in | rain mn in | humidity % | barometer mb |
| 20260903164556 | 72 | 13 | 1.0 | 4.0 | 0.00 | 0.00 | 0.00 | 62 | 1013.3 |
| 20260903163046 | 72 | 107 | 2.0 | 4.0 | 0.00 | 0.00 | 0.00 | 64 | 1013.3 |
| 20260903161543 | 70 | 60 | 1.0 | 4.0 | 0.00 | 0.00 | 0.00 | 67 | 1013.4 |
| 20260903160043 | 70 | 321 | 2.0 | 5.0 | 0.00 | 0.00 | 0.00 | 69 | 1013.5 |
| 20260903154542 | 71 | 284 | 0.0 | 2.0 | 0.00 | 0.00 | 0.00 | 68 | 1013.5 |
| 20260903153040 | 70 | 133 | 0.0 | 2.0 | 0.00 | 0.00 | 0.00 | 69 | 1013.5 |
| 20260903151537 | 69 | 295 | 0.0 | 1.0 | 0.00 | 0.00 | 0.00 | 73 | 1013.5 |
| 20260903150033 | 67 | 295 | 0.0 | 2.0 | 0.00 | 0.00 | 0.00 | 76 | 1013.5 |
| 20260903144531 | 67 | 295 | 0.0 | 1.0 | 0.00 | 0.00 | 0.00 | 76 | 1013.4 |
| 20260903143029 | 66 | 295 | 0.0 | 0.0 | 0.00 | 0.00 | 0.00 | 77 | 1013.2 |
| 20260903141528 | 64 | 295 | 0.0 | 0.0 | 0.00 | 0.00 | 0.00 | 83 | 1013.1 |
| 20260903000119 | 84 | 267 | 4.0 | 14.0 | 0.00 | 0.00 | 0.00 | 43 | 1011.4 |
| 20260902234546 | 84 | 243 | 4.0 | 17.0 | 0.00 | 0.00 | 0.00 | 44 | 1011.6 |
| 20260902233117 | 85 | 228 | 3.0 | 14.0 | 0.00 | 0.00 | 0.00 | 43 | 1011.5 |
| 20260902231543 | 85 | 308 | 5.0 | 10.0 | 0.00 | 0.00 | 0.00 | 43 | 1011.6 |
| 20260902230032 | 86 | 283 | 4.0 | 11.0 | 0.00 | 0.00 | 0.00 | 42 | 1011.7 |
| 20260902224621 | 86 | 238 | 3.0 | 10.0 | 0.00 | 0.00 | 0.00 | 41 | 1011.8 |
| 20260902223047 | 87 | 320 | 5.0 | 15.0 | 0.00 | 0.00 | 0.00 | 39 | 1012.1 |
| 20260902221507 | 87 | 143 | 4.0 | 15.0 | 0.00 | 0.00 | 0.00 | 37 | 1012.3 |
| 20260902220114 | 87 | 287 | 5.0 | 12.0 | 0.00 | 0.00 | 0.00 | 37 | 1012.4 |
| 20260902214530 | 87 | 262 | 4.0 | 11.0 | 0.00 | 0.00 | 0.00 | 37 | 1012.5 |
| 20260902213006 | 87 | 238 | 5.0 | 13.0 | 0.00 | 0.00 | 0.00 | 37 | 1012.6 |
| 20260902211603 | 87 | 253 | 5.0 | 12.0 | 0.00 | 0.00 | 0.00 | 37 | 1012.7 |
| 20260902210034 | 88 | 197 | 4.0 | 9.0 | 0.00 | 0.00 | 0.00 | 36 | 1012.9 |
| 20260902204620 | 86 | 233 | 3.0 | 9.0 | 0.00 | 0.00 | 0.00 | 40 | 1013.0 |
| 20260902203021 | 86 | 286 | 4.0 | 10.0 | 0.00 | 0.00 | 0.00 | 40 | 1013.2 |
| 20260902201615 | 86 | 321 | 6.0 | 11.0 | 0.00 | 0.00 | 0.00 | 37 | 1013.4 |
| 20260902200033 | 84 | 273 | 6.0 | 11.0 | 0.00 | 0.00 | 0.00 | 41 | 1013.5 |
| 20260902194519 | 85 | 273 | 2.0 | 11.0 | 0.00 | 0.00 | 0.00 | 40 | 1013.6 |
| 20260902193115 | 84 | 267 | 3.0 | 8.0 | 0.00 | 0.00 | 0.00 | 40 | 1013.8 |
| 20260902191530 | 82 | 269 | 3.0 | 11.0 | 0.00 | 0.00 | 0.00 | 40 | 1014.0 |
| 20260902190129 | 81 | 231 | 2.0 | 9.0 | 0.00 | 0.00 | 0.00 | 43 | 1014.2 |
| 20260902184617 | 81 | 226 | 2.0 | 14.0 | 0.00 | 0.00 | 0.00 | 44 | 1014.3 |
| 20260902183055 | 80 | 296 | 3.0 | 9.0 | 0.00 | 0.00 | 0.00 | 46 | 1014.5 |
| 20260902181517 | 78 | 245 | 3.0 | 9.0 | 0.00 | 0.00 | 0.00 | 48 | 1014.6 |
| 20260902180104 | 77 | 233 | 3.0 | 9.0 | 0.00 | 0.00 | 0.00 | 49 | 1014.7 |
| 20260902174534 | 76 | 293 | 4.0 | 9.0 | 0.00 | 0.00 | 0.00 | 50 | 1014.7 |
| 20260902173116 | 76 | 315 | 4.0 | 9.0 | 0.00 | 0.00 | 0.00 | 54 | 1014.7 |
| 20260902171521 | 75 | 293 | 2.0 | 6.0 | 0.00 | 0.00 | 0.00 | 55 | 1014.7 |
| 20260902170121 | 74 | 14 | 1.0 | 6.0 | 0.00 | 0.00 | 0.00 | 58 | 1014.8 |